owner,sensor,date,latitude,longitude,vertical_datum,mass_concentration_of_oxygen_in_sea_water,qcFlag 
DISL,ioos:station:DISL:KATA:1,2015-12-01T00:00:00Z,30.2583,-88.2131,4.19,6.68,1111122 
DISL,ioos:station:DISL:KATA:1,2015-12-01T00:30:00Z,30.2583,-88.2131,4.21,6.65,1111122 
DISL,ioos:station:DISL:KATA:1,2015-12-01T01:00:00Z,30.2583,-88.2131,4.247,6.86,1111122 
DISL,ioos:station:DISL:KATA:1,2015-12-01T01:30:00Z,30.2583,-88.2131,4.27,7.04,1111122 
DISL,ioos:station:DISL:KATA:1,2015-12-01T02:00:00Z,30.2583,-88.2131,4.299,7.52,1111122 
DISL,ioos:station:DISL:KATA:1,2015-12-01T02:30:00Z,30.2583,-88.2131,4.322,7.55,1111122 
DISL,ioos:station:DISL:KATA:1,2015-12-01T03:00:00Z,30.2583,-88.2131,4.35,7.54,1111122 
DISL,ioos:station:DISL:KATA:1,2015-12-01T03:30:00Z,30.2583,-88.2131,4.372,7.46,1111122 
DISL,ioos:station:DISL:KATA:1,2015-12-01T04:00:00Z,30.2583,-88.2131,4.389,7.39,1111122 
DISL,ioos:station:DISL:KATA:1,2015-12-01T04:30:00Z,30.2583,-88.2131,4.395,7.26,1111122 
DISL,ioos:station:DISL:KATA:1,2015-12-01T05:00:00Z,30.2583,-88.2131,4.409,7.38,1111122 
DISL,ioos:station:DISL:KATA:1,2015-12-01T05:30:00Z,30.2583,-88.2131,4.405,7.29,1111122 
DISL,ioos:station:DISL:KATA:1,2015-12-01T06:00:00Z,30.2583,-88.2131,4.402,7.25,1111122 
DISL,ioos:station:DISL:KATA:1,2015-12-01T06:30:00Z,30.2583,-88.2131,4.388,7.06,1111122 
DISL,ioos:station:DISL:KATA:1,2015-12-01T07:00:00Z,30.2583,-88.2131,4.376,6.31,1111122 
DISL,ioos:station:DISL:KATA:1,2015-12-01T07:30:00Z,30.2583,-88.2131,4.352,7.01,1111122 
DISL,ioos:station:DISL:KATA:1,2015-12-01T08:00:00Z,30.2583,-88.2131,4.337,7.2,1111122 
DISL,ioos:station:DISL:KATA:1,2015-12-01T08:30:00Z,30.2583,-88.2131,4.328,7.25,1111122 
DISL,ioos:station:DISL:KATA:1,2015-12-01T09:00:00Z,30.2583,-88.2131,4.307,7.1,1111122 
DISL,ioos:station:DISL:KATA:1,2015-12-01T09:30:00Z,30.2583,-88.2131,4.289,7.04,1111122 
DISL,ioos:station:DISL:KATA:1,2015-12-01T10:00:00Z,30.2583,-88.2131,4.261,7.04,1111122 
DISL,ioos:station:DISL:KATA:1,2015-12-01T10:30:00Z,30.2583,-88.2131,4.225,7.07,1111122 
DISL,ioos:station:DISL:KATA:1,2015-12-01T11:00:00Z,30.2583,-88.2131,4.198,6.94,1111122 
DISL,ioos:station:DISL:KATA:1,2015-12-01T11:30:00Z,30.2583,-88.2131,4.161,7.02,1111122 
DISL,ioos:station:DISL:KATA:1,2015-12-01T12:00:00Z,30.2583,-88.2131,4.126,6.99,1111122 
DISL,ioos:station:DISL:KATA:1,2015-12-01T12:30:00Z,30.2583,-88.2131,4.106,6.96,1111122 
DISL,ioos:station:DISL:KATA:1,2015-12-01T13:00:00Z,30.2583,-88.2131,4.069,6.88,1111122 
DISL,ioos:station:DISL:KATA:1,2015-12-01T13:30:00Z,30.2583,-88.2131,4.039,6.82,1111122 
DISL,ioos:station:DISL:KATA:1,2015-12-01T14:00:00Z,30.2583,-88.2131,4.009,6.68,1111122 
DISL,ioos:station:DISL:KATA:1,2015-12-01T14:30:00Z,30.2583,-88.2131,3.985,6.49,1111122 
DISL,ioos:station:DISL:KATA:1,2015-12-01T15:00:00Z,30.2583,-88.2131,3.959,6.73,1111122 
DISL,ioos:station:DISL:KATA:1,2015-12-01T15:30:00Z,30.2583,-88.2131,3.94,6.89,1111122 
DISL,ioos:station:DISL:KATA:1,2015-12-01T16:00:00Z,30.2583,-88.2131,3.938,6.82,1111122 
DISL,ioos:station:DISL:KATA:1,2015-12-01T16:30:00Z,30.2583,-88.2131,3.943,6.66,1111122 
DISL,ioos:station:DISL:KATA:1,2015-12-01T17:00:00Z,30.2583,-88.2131,3.96,6.84,1111122 
DISL,ioos:station:DISL:KATA:1,2015-12-01T17:30:00Z,30.2583,-88.2131,3.98,6.78,1111122 
DISL,ioos:station:DISL:KATA:1,2015-12-01T18:00:00Z,30.2583,-88.2131,4.007,7.08,1111122 
DISL,ioos:station:DISL:KATA:1,2015-12-01T18:30:00Z,30.2583,-88.2131,4.024,7.0,1111122 
DISL,ioos:station:DISL:KATA:1,2015-12-01T19:00:00Z,30.2583,-88.2131,4.017,6.97,1111122 
DISL,ioos:station:DISL:KATA:1,2015-12-01T19:30:00Z,30.2583,-88.2131,4.02,7.04,1111122 
DISL,ioos:station:DISL:KATA:1,2015-12-01T20:00:00Z,30.2583,-88.2131,4.031,6.98,1111122 
DISL,ioos:station:DISL:KATA:1,2015-12-01T20:30:00Z,30.2583,-88.2131,4.049,7.06,1111122 
DISL,ioos:station:DISL:KATA:1,2015-12-01T21:00:00Z,30.2583,-88.2131,4.07,6.98,1111122 
DISL,ioos:station:DISL:KATA:1,2015-12-01T21:30:00Z,30.2583,-88.2131,4.096,7.04,1111122 
DISL,ioos:station:DISL:KATA:1,2015-12-01T22:00:00Z,30.2583,-88.2131,4.126,7.0,1111122 
DISL,ioos:station:DISL:KATA:1,2015-12-01T22:30:00Z,30.2583,-88.2131,4.148,7.07,1111122 
DISL,ioos:station:DISL:KATA:1,2015-12-01T23:00:00Z,30.2583,-88.2131,4.174,7.11,1111122 
DISL,ioos:station:DISL:KATA:1,2015-12-01T23:30:00Z,30.2583,-88.2131,4.201,7.2,1111122 
DISL,ioos:station:DISL:KATA:1,2015-12-02T00:00:00Z,30.2583,-88.2131,4.217,7.29,1111122 
DISL,ioos:station:DISL:KATA:1,2015-12-02T00:30:00Z,30.2583,-88.2131,4.237,7.28,1111122 
DISL,ioos:station:DISL:KATA:1,2015-12-02T01:00:00Z,30.2583,-88.2131,4.256,7.26,1111122 
DISL,ioos:station:DISL:KATA:1,2015-12-02T01:30:00Z,30.2583,-88.2131,4.278,7.24,1111122 
DISL,ioos:station:DISL:KATA:1,2015-12-02T02:00:00Z,30.2583,-88.2131,4.288,7.22,1111122 
DISL,ioos:station:DISL:KATA:1,2015-12-02T02:30:00Z,30.2583,-88.2131,4.299,7.23,1111122 
DISL,ioos:station:DISL:KATA:1,2015-12-02T03:00:00Z,30.2583,-88.2131,4.312,7.23,1111122 
DISL,ioos:station:DISL:KATA:1,2015-12-02T03:30:00Z,30.2583,-88.2131,4.33,7.34,1111122 
DISL,ioos:station:DISL:KATA:1,2015-12-02T04:00:00Z,30.2583,-88.2131,4.345,7.33,1111122 
DISL,ioos:station:DISL:KATA:1,2015-12-02T04:30:00Z,30.2583,-88.2131,4.357,7.24,1111122 
DISL,ioos:station:DISL:KATA:1,2015-12-02T05:00:00Z,30.2583,-88.2131,4.373,7.15,1111122 
DISL,ioos:station:DISL:KATA:1,2015-12-02T05:30:00Z,30.2583,-88.2131,4.39,7.0,1111122 
DISL,ioos:station:DISL:KATA:1,2015-12-02T06:00:00Z,30.2583,-88.2131,4.391,7.18,1111122 
DISL,ioos:station:DISL:KATA:1,2015-12-02T06:30:00Z,30.2583,-88.2131,4.381,6.78,1111122 
DISL,ioos:station:DISL:KATA:1,2015-12-02T07:00:00Z,30.2583,-88.2131,4.377,6.87,1111122 
DISL,ioos:station:DISL:KATA:1,2015-12-02T07:30:00Z,30.2583,-88.2131,4.351,7.01,1111122 
DISL,ioos:station:DISL:KATA:1,2015-12-02T08:00:00Z,30.2583,-88.2131,4.34,6.7,1111122 
DISL,ioos:station:DISL:KATA:1,2015-12-02T08:30:00Z,30.2583,-88.2131,4.31,6.85,1111122 
DISL,ioos:station:DISL:KATA:1,2015-12-02T09:00:00Z,30.2583,-88.2131,4.29,6.92,1111122 
DISL,ioos:station:DISL:KATA:1,2015-12-02T09:30:00Z,30.2583,-88.2131,4.28,6.95,1111122 
DISL,ioos:station:DISL:KATA:1,2015-12-02T10:00:00Z,30.2583,-88.2131,4.26,6.89,1111122 
DISL,ioos:station:DISL:KATA:1,2015-12-02T10:30:00Z,30.2583,-88.2131,4.255,6.93,1111122 
DISL,ioos:station:DISL:KATA:1,2015-12-02T11:00:00Z,30.2583,-88.2131,4.245,7.03,1111122 
DISL,ioos:station:DISL:KATA:1,2015-12-02T11:30:00Z,30.2583,-88.2131,4.221,6.9,1111122 
DISL,ioos:station:DISL:KATA:1,2015-12-02T12:00:00Z,30.2583,-88.2131,4.211,6.7,1111122 
DISL,ioos:station:DISL:KATA:1,2015-12-02T12:30:00Z,30.2583,-88.2131,4.153,6.59,1111122 
DISL,ioos:station:DISL:KATA:1,2015-12-02T13:00:00Z,30.2583,-88.2131,4.108,6.79,1111122 
DISL,ioos:station:DISL:KATA:1,2015-12-02T13:30:00Z,30.2583,-88.2131,4.058,7.18,1111122 
DISL,ioos:station:DISL:KATA:1,2015-12-02T14:00:00Z,30.2583,-88.2131,3.996,7.11,1111122 
DISL,ioos:station:DISL:KATA:1,2015-12-02T14:30:00Z,30.2583,-88.2131,3.957,7.38,1111122 
DISL,ioos:station:DISL:KATA:1,2015-12-02T15:00:00Z,30.2583,-88.2131,3.924,6.77,1111122 
DISL,ioos:station:DISL:KATA:1,2015-12-02T15:30:00Z,30.2583,-88.2131,3.868,6.69,1111122 
DISL,ioos:station:DISL:KATA:1,2015-12-02T16:00:00Z,30.2583,-88.2131,3.848,6.7,1111122 
DISL,ioos:station:DISL:KATA:1,2015-12-02T16:30:00Z,30.2583,-88.2131,3.874,6.76,1111122 
DISL,ioos:station:DISL:KATA:1,2015-12-02T17:00:00Z,30.2583,-88.2131,3.899,6.77,1111122 
DISL,ioos:station:DISL:KATA:1,2015-12-02T17:30:00Z,30.2583,-88.2131,3.964,6.59,1111122 
DISL,ioos:station:DISL:KATA:1,2015-12-02T18:00:00Z,30.2583,-88.2131,4.007,6.58,1111122 
DISL,ioos:station:DISL:KATA:1,2015-12-02T18:30:00Z,30.2583,-88.2131,4.027,6.64,1111122 
DISL,ioos:station:DISL:KATA:1,2015-12-02T19:00:00Z,30.2583,-88.2131,4.068,6.62,1111122 
DISL,ioos:station:DISL:KATA:1,2015-12-02T19:30:00Z,30.2583,-88.2131,4.074,6.58,1111122 
DISL,ioos:station:DISL:KATA:1,2015-12-02T20:00:00Z,30.2583,-88.2131,4.065,6.65,1111122 
DISL,ioos:station:DISL:KATA:1,2015-12-02T20:30:00Z,30.2583,-88.2131,4.092,6.55,1111122 
DISL,ioos:station:DISL:KATA:1,2015-12-02T21:00:00Z,30.2583,-88.2131,4.072,6.5,1111122 
DISL,ioos:station:DISL:KATA:1,2015-12-02T21:30:00Z,30.2583,-88.2131,4.067,6.43,1111122 
DISL,ioos:station:DISL:KATA:1,2015-12-02T22:00:00Z,30.2583,-88.2131,4.051,6.32,1111122 
DISL,ioos:station:DISL:KATA:1,2015-12-02T22:30:00Z,30.2583,-88.2131,4.054,6.32,1111122 
DISL,ioos:station:DISL:KATA:1,2015-12-02T23:00:00Z,30.2583,-88.2131,4.087,6.24,1111122 
DISL,ioos:station:DISL:KATA:1,2015-12-02T23:30:00Z,30.2583,-88.2131,4.109,6.1,1111122 
DISL,ioos:station:DISL:KATA:1,2015-12-03T00:00:00Z,30.2583,-88.2131,4.131,6.21,1111122 
DISL,ioos:station:DISL:KATA:1,2015-12-03T00:30:00Z,30.2583,-88.2131,4.16,6.04,1111122 
DISL,ioos:station:DISL:KATA:1,2015-12-03T01:00:00Z,30.2583,-88.2131,4.17,5.82,1111122 
DISL,ioos:station:DISL:KATA:1,2015-12-03T01:30:00Z,30.2583,-88.2131,4.201,5.71,1111122 
DISL,ioos:station:DISL:KATA:1,2015-12-03T02:00:00Z,30.2583,-88.2131,4.168,6.12,1111122 
DISL,ioos:station:DISL:KATA:1,2015-12-03T02:30:00Z,30.2583,-88.2131,4.167,5.93,1111122 
DISL,ioos:station:DISL:KATA:1,2015-12-03T03:00:00Z,30.2583,-88.2131,4.156,5.97,1111122 
DISL,ioos:station:DISL:KATA:1,2015-12-03T03:30:00Z,30.2583,-88.2131,4.156,5.81,1111122 
DISL,ioos:station:DISL:KATA:1,2015-12-03T04:00:00Z,30.2583,-88.2131,4.156,5.98,1111122 
DISL,ioos:station:DISL:KATA:1,2015-12-03T04:30:00Z,30.2583,-88.2131,4.14,5.98,1111122 
DISL,ioos:station:DISL:KATA:1,2015-12-03T05:00:00Z,30.2583,-88.2131,4.163,5.87,1111122 
DISL,ioos:station:DISL:KATA:1,2015-12-03T05:30:00Z,30.2583,-88.2131,4.152,5.84,1111122 
DISL,ioos:station:DISL:KATA:1,2015-12-03T06:00:00Z,30.2583,-88.2131,4.134,5.86,1111122 
DISL,ioos:station:DISL:KATA:1,2015-12-03T06:30:00Z,30.2583,-88.2131,4.118,5.8,1111122 
DISL,ioos:station:DISL:KATA:1,2015-12-03T07:00:00Z,30.2583,-88.2131,4.113,5.7,1111122 
DISL,ioos:station:DISL:KATA:1,2015-12-03T07:30:00Z,30.2583,-88.2131,4.084,5.43,1111122 
DISL,ioos:station:DISL:KATA:1,2015-12-03T08:00:00Z,30.2583,-88.2131,4.095,5.42,1111122 
DISL,ioos:station:DISL:KATA:1,2015-12-03T08:30:00Z,30.2583,-88.2131,4.092,5.38,1111122 
DISL,ioos:station:DISL:KATA:1,2015-12-03T09:00:00Z,30.2583,-88.2131,4.09,5.22,1111122 
DISL,ioos:station:DISL:KATA:1,2015-12-03T09:30:00Z,30.2583,-88.2131,4.082,5.21,1111122 
DISL,ioos:station:DISL:KATA:1,2015-12-03T10:00:00Z,30.2583,-88.2131,4.046,5.01,1111122 
DISL,ioos:station:DISL:KATA:1,2015-12-03T10:30:00Z,30.2583,-88.2131,4.014,4.91,1111122 
DISL,ioos:station:DISL:KATA:1,2015-12-03T11:00:00Z,30.2583,-88.2131,3.997,4.89,1111122 
DISL,ioos:station:DISL:KATA:1,2015-12-03T11:30:00Z,30.2583,-88.2131,3.991,4.86,1111122 
DISL,ioos:station:DISL:KATA:1,2015-12-03T12:00:00Z,30.2583,-88.2131,3.976,4.89,1111122 
DISL,ioos:station:DISL:KATA:1,2015-12-03T12:30:00Z,30.2583,-88.2131,3.964,4.81,1111122 
DISL,ioos:station:DISL:KATA:1,2015-12-03T13:00:00Z,30.2583,-88.2131,3.957,4.79,1111122 
DISL,ioos:station:DISL:KATA:1,2015-12-03T13:30:00Z,30.2583,-88.2131,3.95,4.88,1111122 
DISL,ioos:station:DISL:KATA:1,2015-12-03T14:00:00Z,30.2583,-88.2131,3.941,4.89,1111122 
DISL,ioos:station:DISL:KATA:1,2015-12-03T14:30:00Z,30.2583,-88.2131,3.94,4.95,1111122 
DISL,ioos:station:DISL:KATA:1,2015-12-03T15:00:00Z,30.2583,-88.2131,3.934,5.03,1111122 
DISL,ioos:station:DISL:KATA:1,2015-12-03T15:30:00Z,30.2583,-88.2131,3.934,5.14,1111122 
DISL,ioos:station:DISL:KATA:1,2015-12-03T16:00:00Z,30.2583,-88.2131,3.923,5.09,1111122 
DISL,ioos:station:DISL:KATA:1,2015-12-03T16:30:00Z,30.2583,-88.2131,3.914,5.16,1111122 
DISL,ioos:station:DISL:KATA:1,2015-12-03T17:00:00Z,30.2583,-88.2131,3.909,5.21,1111122 
DISL,ioos:station:DISL:KATA:1,2015-12-03T17:30:00Z,30.2583,-88.2131,3.9,5.16,1111122 
DISL,ioos:station:DISL:KATA:1,2015-12-03T18:00:00Z,30.2583,-88.2131,3.915,5.16,1111122 
DISL,ioos:station:DISL:KATA:1,2015-12-03T18:30:00Z,30.2583,-88.2131,3.912,5.12,1111122 
DISL,ioos:station:DISL:KATA:1,2015-12-03T19:00:00Z,30.2583,-88.2131,3.933,5.14,1111122 
DISL,ioos:station:DISL:KATA:1,2015-12-03T19:30:00Z,30.2583,-88.2131,3.946,5.2,1111122 
DISL,ioos:station:DISL:KATA:1,2015-12-03T20:00:00Z,30.2583,-88.2131,3.961,5.26,1111122 
DISL,ioos:station:DISL:KATA:1,2015-12-03T20:30:00Z,30.2583,-88.2131,3.978,5.3,1111122 
DISL,ioos:station:DISL:KATA:1,2015-12-03T21:00:00Z,30.2583,-88.2131,4.003,5.23,1111122 
DISL,ioos:station:DISL:KATA:1,2015-12-03T21:30:00Z,30.2583,-88.2131,4.014,5.29,1111122 
DISL,ioos:station:DISL:KATA:1,2015-12-03T22:00:00Z,30.2583,-88.2131,4.011,5.3,1111122 
DISL,ioos:station:DISL:KATA:1,2015-12-03T22:30:00Z,30.2583,-88.2131,4.002,5.37,1111122 
DISL,ioos:station:DISL:KATA:1,2015-12-03T23:00:00Z,30.2583,-88.2131,3.987,5.46,1111122 
DISL,ioos:station:DISL:KATA:1,2015-12-03T23:30:00Z,30.2583,-88.2131,3.992,5.5,1111122 
DISL,ioos:station:DISL:KATA:1,2015-12-04T00:00:00Z,30.2583,-88.2131,3.995,5.52,1111122 
DISL,ioos:station:DISL:KATA:1,2015-12-04T00:30:00Z,30.2583,-88.2131,4.002,5.59,1111122 
DISL,ioos:station:DISL:KATA:1,2015-12-04T01:00:00Z,30.2583,-88.2131,4.01,5.44,1111122 
DISL,ioos:station:DISL:KATA:1,2015-12-04T01:30:00Z,30.2583,-88.2131,3.996,5.27,1111122 
DISL,ioos:station:DISL:KATA:1,2015-12-04T02:00:00Z,30.2583,-88.2131,3.986,5.25,1111122 
DISL,ioos:station:DISL:KATA:1,2015-12-04T02:30:00Z,30.2583,-88.2131,3.966,4.95,1111122 
DISL,ioos:station:DISL:KATA:1,2015-12-04T03:00:00Z,30.2583,-88.2131,3.951,4.82,1111122 
DISL,ioos:station:DISL:KATA:1,2015-12-04T03:30:00Z,30.2583,-88.2131,3.939,4.9,1111122 
DISL,ioos:station:DISL:KATA:1,2015-12-04T04:00:00Z,30.2583,-88.2131,3.92,4.7,1111122 
DISL,ioos:station:DISL:KATA:1,2015-12-04T04:30:00Z,30.2583,-88.2131,3.922,4.62,1111122 
DISL,ioos:station:DISL:KATA:1,2015-12-04T05:00:00Z,30.2583,-88.2131,3.934,4.98,1111122 
DISL,ioos:station:DISL:KATA:1,2015-12-04T05:30:00Z,30.2583,-88.2131,3.928,4.71,1111122 
DISL,ioos:station:DISL:KATA:1,2015-12-04T06:00:00Z,30.2583,-88.2131,3.952,4.89,1111122 
DISL,ioos:station:DISL:KATA:1,2015-12-04T06:30:00Z,30.2583,-88.2131,3.964,4.95,1111122 
DISL,ioos:station:DISL:KATA:1,2015-12-04T07:00:00Z,30.2583,-88.2131,3.976,4.83,1111122 
DISL,ioos:station:DISL:KATA:1,2015-12-04T07:30:00Z,30.2583,-88.2131,3.996,4.69,1111122 
DISL,ioos:station:DISL:KATA:1,2015-12-04T08:00:00Z,30.2583,-88.2131,3.999,4.76,1111122 
DISL,ioos:station:DISL:KATA:1,2015-12-04T08:30:00Z,30.2583,-88.2131,3.999,4.81,1111122 
DISL,ioos:station:DISL:KATA:1,2015-12-04T09:00:00Z,30.2583,-88.2131,3.975,4.79,1111122 
DISL,ioos:station:DISL:KATA:1,2015-12-04T09:30:00Z,30.2583,-88.2131,3.986,4.79,1111122 
DISL,ioos:station:DISL:KATA:1,2015-12-04T10:00:00Z,30.2583,-88.2131,3.956,4.67,1111122 
DISL,ioos:station:DISL:KATA:1,2015-12-04T10:30:00Z,30.2583,-88.2131,3.943,4.71,1111122 
DISL,ioos:station:DISL:KATA:1,2015-12-04T11:00:00Z,30.2583,-88.2131,3.93,4.66,1111122 
DISL,ioos:station:DISL:KATA:1,2015-12-04T11:30:00Z,30.2583,-88.2131,3.902,4.59,1111122 
DISL,ioos:station:DISL:KATA:1,2015-12-04T12:00:00Z,30.2583,-88.2131,3.912,4.53,1111122 
DISL,ioos:station:DISL:KATA:1,2015-12-04T12:30:00Z,30.2583,-88.2131,3.892,4.6,1111122 
DISL,ioos:station:DISL:KATA:1,2015-12-04T13:00:00Z,30.2583,-88.2131,3.868,4.47,1111122 
DISL,ioos:station:DISL:KATA:1,2015-12-04T13:30:00Z,30.2583,-88.2131,3.864,4.15,1111122 
DISL,ioos:station:DISL:KATA:1,2015-12-04T14:00:00Z,30.2583,-88.2131,3.86,4.09,1111122 
DISL,ioos:station:DISL:KATA:1,2015-12-04T14:30:00Z,30.2583,-88.2131,3.861,4.28,1111122 
DISL,ioos:station:DISL:KATA:1,2015-12-04T15:00:00Z,30.2583,-88.2131,3.85,4.48,1111122 
DISL,ioos:station:DISL:KATA:1,2015-12-04T15:30:00Z,30.2583,-88.2131,3.845,4.1,1111122 
DISL,ioos:station:DISL:KATA:1,2015-12-04T16:00:00Z,30.2583,-88.2131,3.856,4.49,1111122 
DISL,ioos:station:DISL:KATA:1,2015-12-04T16:30:00Z,30.2583,-88.2131,3.868,4.39,1111122 
DISL,ioos:station:DISL:KATA:1,2015-12-04T17:00:00Z,30.2583,-88.2131,3.888,4.46,1111122 
DISL,ioos:station:DISL:KATA:1,2015-12-04T17:30:00Z,30.2583,-88.2131,3.892,4.28,1111122 
DISL,ioos:station:DISL:KATA:1,2015-12-04T18:00:00Z,30.2583,-88.2131,3.898,4.25,1111122 
DISL,ioos:station:DISL:KATA:1,2015-12-04T18:30:00Z,30.2583,-88.2131,3.908,4.0,1111122 
DISL,ioos:station:DISL:KATA:1,2015-12-04T19:00:00Z,30.2583,-88.2131,3.915,4.03,1111122 
DISL,ioos:station:DISL:KATA:1,2015-12-04T19:30:00Z,30.2583,-88.2131,3.941,4.45,1111122 
DISL,ioos:station:DISL:KATA:1,2015-12-04T20:00:00Z,30.2583,-88.2131,3.968,4.26,1111122 
DISL,ioos:station:DISL:KATA:1,2015-12-04T20:30:00Z,30.2583,-88.2131,3.966,4.51,1111122 
DISL,ioos:station:DISL:KATA:1,2015-12-04T21:00:00Z,30.2583,-88.2131,3.972,4.68,1111122 
DISL,ioos:station:DISL:KATA:1,2015-12-04T21:30:00Z,30.2583,-88.2131,3.986,4.77,1111122 
DISL,ioos:station:DISL:KATA:1,2015-12-04T22:00:00Z,30.2583,-88.2131,3.998,5.14,1111122 
DISL,ioos:station:DISL:KATA:1,2015-12-04T22:30:00Z,30.2583,-88.2131,3.994,5.26,1111122 
DISL,ioos:station:DISL:KATA:1,2015-12-04T23:00:00Z,30.2583,-88.2131,4.0,5.6,1111122 
DISL,ioos:station:DISL:KATA:1,2015-12-04T23:30:00Z,30.2583,-88.2131,4.01,5.97,1111122 
DISL,ioos:station:DISL:KATA:1,2015-12-05T00:00:00Z,30.2583,-88.2131,4.02,6.15,1111122 
DISL,ioos:station:DISL:KATA:1,2015-12-05T00:30:00Z,30.2583,-88.2131,4.025,6.39,1111122 
DISL,ioos:station:DISL:KATA:1,2015-12-05T01:00:00Z,30.2583,-88.2131,4.014,6.33,1111122 
DISL,ioos:station:DISL:KATA:1,2015-12-05T01:30:00Z,30.2583,-88.2131,4.016,6.11,1111122 
DISL,ioos:station:DISL:KATA:1,2015-12-05T02:00:00Z,30.2583,-88.2131,4.013,6.01,1111122 
DISL,ioos:station:DISL:KATA:1,2015-12-05T02:30:00Z,30.2583,-88.2131,4.011,5.82,1111122 
DISL,ioos:station:DISL:KATA:1,2015-12-05T03:00:00Z,30.2583,-88.2131,4.013,5.95,1111122 
DISL,ioos:station:DISL:KATA:1,2015-12-05T03:30:00Z,30.2583,-88.2131,4.006,5.79,1111122 
DISL,ioos:station:DISL:KATA:1,2015-12-05T04:00:00Z,30.2583,-88.2131,3.994,6.04,1111122 
DISL,ioos:station:DISL:KATA:1,2015-12-05T04:30:00Z,30.2583,-88.2131,3.994,5.97,1111122 
DISL,ioos:station:DISL:KATA:1,2015-12-05T05:00:00Z,30.2583,-88.2131,3.98,5.86,1111122 
DISL,ioos:station:DISL:KATA:1,2015-12-05T05:30:00Z,30.2583,-88.2131,3.974,5.9,1111122 
DISL,ioos:station:DISL:KATA:1,2015-12-05T06:00:00Z,30.2583,-88.2131,3.964,6.11,1111122 
DISL,ioos:station:DISL:KATA:1,2015-12-05T06:30:00Z,30.2583,-88.2131,3.959,6.3,1111122 
DISL,ioos:station:DISL:KATA:1,2015-12-05T07:00:00Z,30.2583,-88.2131,3.951,6.24,1111122 
DISL,ioos:station:DISL:KATA:1,2015-12-05T07:30:00Z,30.2583,-88.2131,3.948,6.21,1111122 
DISL,ioos:station:DISL:KATA:1,2015-12-05T08:00:00Z,30.2583,-88.2131,3.956,6.08,1111122 
DISL,ioos:station:DISL:KATA:1,2015-12-05T08:30:00Z,30.2583,-88.2131,3.95,5.88,1111122 
DISL,ioos:station:DISL:KATA:1,2015-12-05T09:00:00Z,30.2583,-88.2131,3.949,5.78,1111122 
DISL,ioos:station:DISL:KATA:1,2015-12-05T09:30:00Z,30.2583,-88.2131,3.938,5.77,1111122 
DISL,ioos:station:DISL:KATA:1,2015-12-05T10:00:00Z,30.2583,-88.2131,3.917,5.89,1111122 
DISL,ioos:station:DISL:KATA:1,2015-12-05T10:30:00Z,30.2583,-88.2131,3.892,5.96,1111122 
DISL,ioos:station:DISL:KATA:1,2015-12-05T11:00:00Z,30.2583,-88.2131,3.872,6.21,1111122 
DISL,ioos:station:DISL:KATA:1,2015-12-05T11:30:00Z,30.2583,-88.2131,3.854,6.05,1111122 
DISL,ioos:station:DISL:KATA:1,2015-12-05T12:00:00Z,30.2583,-88.2131,3.836,6.06,1111122 
DISL,ioos:station:DISL:KATA:1,2015-12-05T12:30:00Z,30.2583,-88.2131,3.824,6.09,1111122 
DISL,ioos:station:DISL:KATA:1,2015-12-05T13:00:00Z,30.2583,-88.2131,3.816,5.9,1111122 
DISL,ioos:station:DISL:KATA:1,2015-12-05T13:30:00Z,30.2583,-88.2131,3.819,5.83,1111122 
DISL,ioos:station:DISL:KATA:1,2015-12-05T14:00:00Z,30.2583,-88.2131,3.828,5.78,1111122 
DISL,ioos:station:DISL:KATA:1,2015-12-05T14:30:00Z,30.2583,-88.2131,3.834,5.76,1111122 
DISL,ioos:station:DISL:KATA:1,2015-12-05T15:00:00Z,30.2583,-88.2131,3.84,5.6,1111122 
DISL,ioos:station:DISL:KATA:1,2015-12-05T15:30:00Z,30.2583,-88.2131,3.83,5.42,1111122 
DISL,ioos:station:DISL:KATA:1,2015-12-05T16:00:00Z,30.2583,-88.2131,3.826,5.42,1111122 
DISL,ioos:station:DISL:KATA:1,2015-12-05T16:30:00Z,30.2583,-88.2131,3.822,5.58,1111122 
DISL,ioos:station:DISL:KATA:1,2015-12-05T17:00:00Z,30.2583,-88.2131,3.822,5.33,1111122 
DISL,ioos:station:DISL:KATA:1,2015-12-05T17:30:00Z,30.2583,-88.2131,3.829,5.36,1111122 
DISL,ioos:station:DISL:KATA:1,2015-12-05T18:00:00Z,30.2583,-88.2131,3.846,5.53,1111122 
DISL,ioos:station:DISL:KATA:1,2015-12-05T18:30:00Z,30.2583,-88.2131,3.868,5.26,1111122 
DISL,ioos:station:DISL:KATA:1,2015-12-05T19:00:00Z,30.2583,-88.2131,3.897,5.01,1111122 
DISL,ioos:station:DISL:KATA:1,2015-12-05T19:30:00Z,30.2583,-88.2131,3.916,5.1,1111122 
DISL,ioos:station:DISL:KATA:1,2015-12-05T20:00:00Z,30.2583,-88.2131,3.942,4.91,1111122 
DISL,ioos:station:DISL:KATA:1,2015-12-05T20:30:00Z,30.2583,-88.2131,3.954,4.9,1111122 
DISL,ioos:station:DISL:KATA:1,2015-12-05T21:00:00Z,30.2583,-88.2131,3.971,4.82,1111122 
DISL,ioos:station:DISL:KATA:1,2015-12-05T21:30:00Z,30.2583,-88.2131,3.974,4.77,1111122 
DISL,ioos:station:DISL:KATA:1,2015-12-05T22:00:00Z,30.2583,-88.2131,3.992,5.2,1111122 
DISL,ioos:station:DISL:KATA:1,2015-12-05T22:30:00Z,30.2583,-88.2131,4.005,5.14,1111122 
DISL,ioos:station:DISL:KATA:1,2015-12-05T23:00:00Z,30.2583,-88.2131,4.02,5.41,1111122 
DISL,ioos:station:DISL:KATA:1,2015-12-05T23:30:00Z,30.2583,-88.2131,4.036,5.19,1111122 
DISL,ioos:station:DISL:KATA:1,2015-12-06T00:00:00Z,30.2583,-88.2131,4.057,5.45,1111122 
DISL,ioos:station:DISL:KATA:1,2015-12-06T00:30:00Z,30.2583,-88.2131,4.075,5.29,1111122 
DISL,ioos:station:DISL:KATA:1,2015-12-06T01:00:00Z,30.2583,-88.2131,4.082,5.06,1111122 
DISL,ioos:station:DISL:KATA:1,2015-12-06T01:30:00Z,30.2583,-88.2131,4.095,5.05,1111122 
DISL,ioos:station:DISL:KATA:1,2015-12-06T02:00:00Z,30.2583,-88.2131,4.09,5.21,1111122 
DISL,ioos:station:DISL:KATA:1,2015-12-06T02:30:00Z,30.2583,-88.2131,4.085,5.15,1111122 
DISL,ioos:station:DISL:KATA:1,2015-12-06T03:00:00Z,30.2583,-88.2131,4.078,4.97,1111122 
DISL,ioos:station:DISL:KATA:1,2015-12-06T03:30:00Z,30.2583,-88.2131,4.06,4.28,1111122 
DISL,ioos:station:DISL:KATA:1,2015-12-06T04:00:00Z,30.2583,-88.2131,4.044,4.09,1111122 
DISL,ioos:station:DISL:KATA:1,2015-12-06T04:30:00Z,30.2583,-88.2131,4.031,4.16,1111122 
DISL,ioos:station:DISL:KATA:1,2015-12-06T05:00:00Z,30.2583,-88.2131,4.013,4.23,1111122 
DISL,ioos:station:DISL:KATA:1,2015-12-06T05:30:00Z,30.2583,-88.2131,3.988,4.27,1111122 
DISL,ioos:station:DISL:KATA:1,2015-12-06T06:00:00Z,30.2583,-88.2131,3.956,4.1,1111122 
DISL,ioos:station:DISL:KATA:1,2015-12-06T06:30:00Z,30.2583,-88.2131,3.928,4.09,1111122 
DISL,ioos:station:DISL:KATA:1,2015-12-06T07:00:00Z,30.2583,-88.2131,3.904,4.27,1111122 
DISL,ioos:station:DISL:KATA:1,2015-12-06T07:30:00Z,30.2583,-88.2131,3.885,3.98,1111122 
DISL,ioos:station:DISL:KATA:1,2015-12-06T08:00:00Z,30.2583,-88.2131,3.885,4.38,1111122 
DISL,ioos:station:DISL:KATA:1,2015-12-06T08:30:00Z,30.2583,-88.2131,3.89,4.39,1111122 
DISL,ioos:station:DISL:KATA:1,2015-12-06T09:00:00Z,30.2583,-88.2131,3.889,4.74,1111122 
DISL,ioos:station:DISL:KATA:1,2015-12-06T09:30:00Z,30.2583,-88.2131,3.893,4.86,1111122 
DISL,ioos:station:DISL:KATA:1,2015-12-06T10:00:00Z,30.2583,-88.2131,3.889,4.87,1111122 
DISL,ioos:station:DISL:KATA:1,2015-12-06T10:30:00Z,30.2583,-88.2131,3.878,4.96,1111122 
DISL,ioos:station:DISL:KATA:1,2015-12-06T11:00:00Z,30.2583,-88.2131,3.864,5.08,1111122 
DISL,ioos:station:DISL:KATA:1,2015-12-06T11:30:00Z,30.2583,-88.2131,3.854,5.17,1111122 
DISL,ioos:station:DISL:KATA:1,2015-12-06T12:00:00Z,30.2583,-88.2131,3.844,5.18,1111122 
DISL,ioos:station:DISL:KATA:1,2015-12-06T12:30:00Z,30.2583,-88.2131,3.832,5.22,1111122 
DISL,ioos:station:DISL:KATA:1,2015-12-06T13:00:00Z,30.2583,-88.2131,3.836,5.33,1111122 
DISL,ioos:station:DISL:KATA:1,2015-12-06T13:30:00Z,30.2583,-88.2131,3.834,5.3,1111122 
DISL,ioos:station:DISL:KATA:1,2015-12-06T14:00:00Z,30.2583,-88.2131,3.834,5.4,1111122 
DISL,ioos:station:DISL:KATA:1,2015-12-06T14:30:00Z,30.2583,-88.2131,3.834,5.31,1111122 
DISL,ioos:station:DISL:KATA:1,2015-12-06T15:00:00Z,30.2583,-88.2131,3.843,5.5,1111122 
DISL,ioos:station:DISL:KATA:1,2015-12-06T15:30:00Z,30.2583,-88.2131,3.85,5.71,1111122 